www.pogodaiklimat.ru

Погода и климат >> Архив погоды >> Перу >> Nazca


ПОГОДА в Nazca

  • Прогноз погоды в Nazca
  • Монитор погоды в Nazca
  • Климат города

АРХИВ ПОГОДЫ в Nazca

Время (UTC), дата Ветер
(напр.,м/с)
 
Видим.   Явления Облачность Т
(С)
Тd
(С)
f
(%)
Тe
(С)
Тes
(С)
Комфортность P
(гПа)
Po
(гПа)
Тmin
(С)
Tmax
(С)
R
(мм)
R24
(мм)
S
(см)
18 11.10 ЮЗ 2 10 км 5/0 2000 м
[As trans]
+29.4 +14.6 41 +32 +46 душно 1011.7 950.1
12 12.10 ЮЗ 3 8000 м дымка 10/10 450 м
[St]
+15.8 +12.9 83 +15 +15 1018.1 953.3 +15.2
15 12.10 Ю 2 10 км ясно +21.4 +14.2 64 +24 +42 комфорт 1016.5 953.0
18 12.10 ЮЗ 7 10 км ясно +23.4 +14.1 56 +27 +34 душно 1014.3 951.3
21 12.10 Ю 9 3000 м пыльный позёмок {метель} 3/0 2000 м
[As trans]
+21.8 +13.6 60 +25 +25 комфорт 1014.0 950.7
12 13.10 СЗ 2 8000 м дымка 8/8 450 м
[St]
+15.2 +13.3 88 +15 +16 1018.2 953.3 +14.4
15 13.10 В 2 10 км 5/5 1500 м
[St]
+20.6 +14.0 66 +24 +33 комфорт 1017.0 953.3
18 13.10 ЮЗ 8 10 км 5/5 1500 м
[St]
+21.8 +14.0 61 +25 +27 комфорт 1014.7 951.7
21 13.10 Ю 8 10 км 6/6 1500 м
[St]
+20.4 +14.1 67 +22 +23 комфорт 1014.1 950.8
12 14.10 З 2 8000 м дымка 6/6 420 м
[St]
+14.8 +12.8 88 +14 +15 1016.3 951.7 +13.6
15 14.10 СЗ 2 10 км {туман} 5/5 1500 м
[St]
+20.4 +14.3 68 +24 +33 комфорт 1015.2 951.9
18 14.10 ЮЗ 5 10 км 4/4 2000 м
[St]
+23.8 +13.8 53 +26 +33 жарко 1012.3 949.5
21 14.10 ЮЗ 6 10 км 4/0 2000 м
[As trans]
+21.4 +14.6 65 +24 +26 комфорт 1012.0 948.8
12 15.10 С 2 8000 м дымка 8/8 1200 м
[St]
+14.5 +11.7 83 +14 +15 1016.4 951.4 +14.4
15 15.10 З 2 10 км ясно +22.2 +14.1 60 +25 +42 комфорт 1014.3 951.1
18 15.10 З 4 10 км ясно +27.3 +15.4 48 +30 +45 душно 1011.0 949.3
21 15.10 ЮЗ 6 4000 м пыльный позёмок 6/0
[As trans]
+23.3 +14.1 56 +27 +28 душно 1011.4 948.9
12 16.10 нст 1 8000 м дымка 6/0 2000 м
[As trans]
+14.8 +12.7 87 +15 +17 1015.8 951.2 +12.4
15 16.10 ЮЗ 2 10 км {туман} 5/0
[As trans]
+22.3 +14.4 61 +26 +37 жарко 1014.8 951.9
18 16.10 З 3 10 км ясно +28.0 +12.7 39 +29 +46 жарко 1011.1 949.3
21 16.10 ЮЗ 6 10 км ясно +26.0 +13.6 46 +28 +30 жарко 1010.4 948.2
12 17.10 СВ 2 8000 м дымка 10/10 300 м
[Frnb]
+13.8 +12.1 89 +13 +13 1016.1 951.0 +13.2
15 17.10 СЗ 2 10 км ясно +21.4 +14.2 64 +24 +42 комфорт 1014.7 951.3
18 17.10 З 3 10 км ясно +26.7 +13.2 43 +28 +45 жарко 1011.5 949.7
21 17.10 ЮЗ 8 8000 м мгла ясно +25.8 +12.6 44 +28 +29 жарко 1010.0 948.1

 

Местоположение метеостанции Nazca (Перу): широта -14.86 долгота -74.96 высота над уровнем моря 567 м.

В архиве по умолчанию представлена погода в Nazca за последнюю неделю. Архивные данные за месяц целиком и за предыдущие месяцы, начиная с января 2011 года, Вы можете получить, выбрав интересующий диапазон дат из раскрывающегося списка и нажав кнопку "Ввод!".


*Определитесь, кто Вы:
робот инопланетянин человек

Внимание! Время в таблицах - всемирное. Для получения местного времени необходимо прибавить поправку, которая в Nazca равна -5 ч.

Смотрите также архив погоды в соседних городах и на ближайших метеорологических станциях:

Погода в Pisco (Перу) (184 км)
Погода в Ayacucho (Перу) (207 км)
Погода в Andahualaylas (Перу) (216 км)
Погода в Cuzco (Перу) (359 км)
Погода в Lima (Перу) (394 км)
Погода в Arequipa (Перу) (399 км)
Погода в Ilo (Перу) (499 км)
Погода в Juliaca (Перу) (521 км)
Погода в Huanuco (Перу) (571 км)
Погода в Tacna (Перу) (614 км)

Пояснения к столбцам:

Ветер - указаны скорость ветра в м/с - средняя за 10 мин, порывы в срок и между сроками (в фигурных скобках) и направление, откуда дует ветер: С - северный, СВ - северо-восточный, В - восточный, ЮВ - юго-восточный, Ю - южный, ЮЗ - юго-западный, З - западный, СЗ - северо-западный.
Видимость - горизонтальная дальность видимости в метрах или километрах. При видимости от 1 до 10 км при отсутствии осадков обычно наблюдается дымка, при ухудшении видимости до 1 км и менее - туман. В сухую погоду видимость может ухудшаться дымом, пылью или мглою.
Явления - указаны атмосферные явления, наблюдавшиеся в срок или в последний час перед сроком; фигурными скобками обозначены явления, наблюдавшиеся между сроками (за 1-3 часа до срока); квадратными скобками обозначены град или гололедные отложения с указанием их диаметра в мм.
Облачность - указаны через наклонную черту общая и нижняя облачность в баллах и высота нижней границы облаков в метрах; квадратными скобками обозначены формы облаков: Ci - перистые, Cs - перисто-слоистые, Cc - перисто-кучевые, Ac - высококучевые, As - высокослоистые, Sc - слоисто-кучевые, Ns - слоисто-дождевые, Cu - кучевые, Cb - кучево-дождевые. Подробнее классификацию облаков см. в Атласе облаков (PDF).
T - Температура воздуха - температура, измеренная на высоте 2 м над землей.
Td - Температура точки росы - температура, при понижении до которой содержащийся в воздухе водяной пар достигнет насыщения.
f - Относительная влажность воздуха - влажноcть воздуха, измеренная на высоте 2 м над землей.
Te - Эффективная температура - температура, которую ощущает одетый по сезону человек в тени. Характеристика душности погоды. При расчете учитывается влияние влажности воздуха и скорости ветра на теплоощущения человека.
Tes - Эффективная температура на солнце - температура, которую ощущает человек, с поправкой на солнечный нагрев. Характеристика знойности погоды. Зависит от высоты солнца над горизонтом, облачности и скорости ветра. Ночью, в пасмурную погоду, а также при ветре 12 м/с и более поправка равна нулю.
P - Атмосферное давление - приведенное к уровню моря атмосферное давление.
Po - Атмосферное давление - измеренное на уровне метеостанции атмосферное давление.
Tmin - Минимальная температура - минимум температуры воздуха на высоте 2 м над землей.
Tmax - Максимальная температура - максимум температуры воздуха на высоте 2 м над землей.
R - Количество осадков - Количество выпавших осадков за период времени, мм. При наведении курсора мыши на число - период времени, за который выпало указанное количество осадков.
R24 - Количество осадков - Количество выпавших осадков за 24 часа, мм.
S - Снежный покров - Высота снежного покрова, см. При наведении курсора мыши на число - состояние снежного покрова и степень покрытия местности в баллах.